Zurück zum Katalog

COSMOS 1823 DEB

AktivLEO
NORAD 39833·DEBRIS·🇷🇺 Russia

Gestartet Feb 20, 1987 von Plesetsk Cosmodrome

Loading…

Nächste Überflüge (nächste 24 Stunden)

TLE

VeraltetSource: Space-Track

Epoche: Sep 3, 2026, 17:14 UTC

1 39833U 87020FH  26246.71828615  .00000161  00000-0  10439-2 0  9998
2 39833  73.7809 352.8208 0017977 182.6588 177.4374 12.59003714562591

Verfolge COSMOS 1823 DEB in Echtzeit mit AllMySat

Download on the App Store